+ View the NASA Portal
+ Center for Near-Earth Object Studies
IMPORTANT:
The SSD Announcement email list is now available. Major changes are coming in the near future, including possible hostname and/or URL changes. To be notified of such changes, subscribe to this email list.
Please visit
this page
for more details.
Don't show this message again
JPL Small-Body Database Browser
Search:
[
help
]
32676 (6802 P-L)
Classification:
Main-belt Asteroid
SPK-ID:
2032676
[
Ephemeris
|
Orbit Diagram
|
Orbital Elements
|
Mission Design
|
Physical Parameters
|
Discovery Circumstances
]
[ show orbit diagram ]
Orbital Elements at Epoch 2458600.5 (2019-Apr-27.0) TDB
Reference:
JPL 13
(heliocentric ecliptic J2000)
Element
Value
Uncertainty (1-sigma)
Units
e
.1162532276466243
7.0553e-08
a
2.565510074956954
1.7312e-08
au
q
2.267261248183275
1.7854e-07
au
i
3.998272727521214
7.2014e-06
deg
node
16.31601436371639
9.167e-05
deg
peri
328.6819430727899
9.519e-05
deg
M
106.3187372297592
2.8987e-05
deg
t
p
2458157.232058815334
(2018-Feb-07.73205882)
0.0001191
TDB
period
1500.925076655382
4.11
1.5193e-05
4.16e-08
d
yr
n
.2398520789606725
2.4278e-09
deg/d
Q
2.863758901730633
1.9325e-08
au
Orbit Determination Parameters
# obs. used (total)
305
data-arc span
21289 days (58.29 yr)
first obs. used
1960-09-24
last obs. used
2019-01-07
planetary ephem.
DE431
SB-pert. ephem.
SB431-N16
condition code
0
norm. resid. RMS
.68085
source
ORB
producer
Otto Matic
solution date
2019-Jul-13 01:32:59
Additional Information
Earth MOID
= 1.26025 au
Jupiter MOID
= 2.51763 au
T_jup
= 3.420
[ show covariance matrix ]
[
Ephemeris
|
Orbit Diagram
|
Orbital Elements
|
Mission Design
|
Physical Parameters
|
Discovery Circumstances
]
Physical Parameter Table
Parameter
Symbol
Value
Units
Sigma
Reference
Notes
absolute magnitude
H
16.1
n/a
MPO452629
32676 (6802 P-L)
Discovered 1960-Sep-24 by van Houten, C. J., van Houten-Groeneveld, I., Gehrels, T. at Palomar
Reference:
20011130/Numbers.arc
Last Updated:
2004-04-19
Alternate Designations
6802 P-L
= 2000 HO90 = 2001 RS113
[
Ephemeris
|
Orbit Diagram
|
Orbital Elements
|
Mission Design
|
Physical Parameters
|
Discovery Circumstances
]
2019-Dec-10 03:14 UT
(server date/time)
Site Manager:
Ryan S. Park
Webmaster
:
Alan B. Chamberlin